Location: Heidgraben
(53.7081°N, 9.6576°E)
Time: 22:58:44
(UTC+00:00)

Cosmos 2333 Rocket - Pass Details

Date: 27 October 2020
Orbit: 841 x 861 km, 70.8° (Epoch: 28 November)

Event Time Altitude Azimuth Distance (km) Brightness Sun altitude
Exits shadow 04:20:56 - 328° (NNW) 3,026 4.8 -16.9°
Reaches altitude 10° 04:22:44 10° 338° (NNW) 2,485 4.4 -16.7°
Maximum altitude 04:27:10 23° 30° (NNE) 1,749 4.2 -16.0°
Drops below altitude 10° 04:31:35 10° 81° (E) 2,469 6.0 -15.4°
Sets 04:34:34 0° 96° (E) 3,400 7.3 -14.9°
